Погода в Осмолоде

Украина / Ивано-Франковская область     48°38′57″N   24°01′08″E
темп.,
°C
ветер,
м/с
пор.,
м/с
влажн.,
%
обл.,
%
осадки,
мм/ч
давл.,
гПа
погр.,
м
27 ноября, сб
сб2723:00+2ююз2693100 0.3 994332
02:00+3юз51691100 1.1 9921240
05:00+3юз82189100 0.4 9911341
08:00+2юз6197986 0.5 9931189
11:00+4юз4137146 0.0 997964
14:00+3юз4128284 0.1 998888
17:00+2ююз278639 0.0 1000499
20:00+1ююз399460 0.0 1001439
28 ноября, вс
вс2823:00+1ююз359587 0.0 1002123
02:00+3ююз2490100 0.4 1001161
05:00+3ююз2294100 1.9 100091
08:00+3ююз2396100 4.5 1000117
11:00+3ююз2395100 2.5 1000222
14:00+5ююз21089100 3.9 997685
17:00+4ю2489100 0.0 997186
20:00+4ююв2490100 0.1 99699
29 ноября, пн
пн2923:00+4ю2388100 0.0 99449
02:00+4ююз2390100 0.3 99271
05:00+4ю2594100 0.8 990353
08:00+3зюз31092100 1.6 992743
11:00+2з1791100 0.3 994784
14:00+1з2692100 0.6 995630
17:00−1зсз139798 0.6 998167
20:00−2з239056 2.2 1001193
30 ноября, вт
вт3023:00−4зюз249220 0.1 100291
02:00−4з248946 0.1 1005129
05:00−5зюз238745 0.0 1005105
08:00−4з258370 0.0 1007395
11:00−3з367198 0.1 10081039
14:00−2зсз4770100 0.2 10071214
17:00−4зюз388210 0.1 1008451
20:00−4юз4137622 0.1 1007844
1 декабря, ср
ср123:00−4юз91875100 0.1 10051060
02:00−3юз122074100 0.3 10031034
05:00−3юз71576100 0.3 1004824
08:00−3зюз5127779 0.4 1006976
11:00−1зюз4117379 0.2 10071079
14:000зюз5127347 0.3 10071089
17:00−1юз41180100 0.1 1007521
20:000юз5178696 0.1 1006799